SL-8 DEB *, 3045

Orbit data source: Space-Track

SL-8 DEB *, 3045 is space debris in LEO originally from a launch on Fri, 03 Sep 1965 UTC launched from the Tyuratam Missile And Space Complex (TTMTR). Debris objects in space refer to the collection of defunct objects orbiting the Earth. Examples of debris include non-operational satellites, rocket bodies, and fragments generated from explosions, collisions, or faulty payload assembly.

Loading next visibility...
Identifier
3045, 1965-070G
Orbit
LEO
Last TLE update
22 hours ago
Origin
Manufacturer
Unknown
Mission
Spacecraft
Bus & Motor
Unknown
Mass
Unknown
Launch date (UTC)
1965-09-03 (60 years ago)
Launch vehicle
Unknown
Launch site
Tyuratam Missile And Space Complex (TTMTR)
Object type
Payload
Rocket body
Debris
Shape & HBR
Unknown
Radar Cross Section
Small (<0.1 m²)

Expand to show TLE details & history

TLE from 22 hours ago
0 SL-8 DEB *
1 03045U 65070G   25128.34288433 -.00000266  00000-0 -10483-2 0  9997
2 03045  55.4304 261.6209 0286945 290.3188  89.8592 12.44548549638538
Epoch: 2025-05-08T08:13Z
Definitive object data (Epoch: 2025-05-08T08:13:45.206Z)
Latitude
19.16936°
Longitude
-74.44157°
Altitude
1,493.843 km
Speed
7.117 km/s
True Right ascension
18h 21m 38s
True Declination
19° 04' 22"
Sunlit
Object was in daylight at TLE epoch
Visualization TLE readout
Latitude
55.31388°
Longitude
-8.39936°
Altitude
1,696.311 km
Speed
6.942 km/s
Apparent Right ascension
00h 23m 43s
Apparent Declination
16° 18' 17"
Sunlit
Object is in daylight
Visualization observer readout
Local Sidereal Time
13:55:21
Azimuth
25.523° NE
Elevation
-29.862°
Doppler factor
1
Orbital elements
Apogee altitude
1,712.984 km
Perigee altitude
1,261.595 km
Semi-major axis
7,865.426 km
Eccentricity
0.0286945
Inclination
55.4304°
RAAN
261.6209°
Arg. of periapsis
290.3188°
True anomaly
93.14582°
Mean anomaly
89.8592°
Eccentric anomaly
91.50271°
Mean motion
3.11143 °/min
BSTAR
-0.0010483
Orbital period
115.7 mins
Loading maneuver chart data...
Loading SW <> Apogee altitude chart data...
Loading historical data...
Loading historical data...
Loading historical data...
Loading historical data...
Loading historical data...
Loading historical data...
Loading historical data...
Other satellites on launch #70 in the year 1965 (1965-09-03 UTC)

SL-8 DEB * Visibility forecast

Observer location: undefined°, undefined°

Span
Click to sort rows by Start time (UTC) header in descending order
Start Az.
Max El. time (UTC)
Max El. Az.
Max El.
End time (UTC)
End Az.
13 mins2025-05-09 09:15:38.315Z162.48° S2025-05-09 09:21:38.315Z118.725° SE22.051°2025-05-09 09:28:38.315Z68.906° E
17 mins2025-05-09 11:14:38.315Z222.534° SW2025-05-09 11:21:38.315Z202.378° SSW44.88°2025-05-09 11:31:38.315Z47.095° ENE
17 mins2025-05-09 13:16:38.315Z274.604° WNW2025-05-09 13:24:38.315Z343.555° N33.266°2025-05-09 13:33:38.315Z46.745° ENE
16 mins2025-05-09 15:20:38.315Z308.802° NW2025-05-09 15:28:38.315Z10.072° NNE28.887°2025-05-09 15:36:38.315Z65.929° ENE
18 mins2025-05-09 17:23:38.315Z318.995° NNW2025-05-09 17:31:38.315Z28.782° NE39.666°2025-05-09 17:41:38.315Z109.599° ESE
18 mins2025-05-09 19:24:38.315Z306.008° NW2025-05-09 19:33:38.315Z225.916° WSW39.832°2025-05-09 19:42:38.315Z159.392° S
4 mins2025-05-09 21:30:38.315Z262.883° W2025-05-09 21:32:38.315Z250.73° W11.582°2025-05-09 21:34:38.315Z238.501° WSW
|